Regional Weather Roundup
Issued by NWS

Home | Current Version | Previous Version | Graphics & Text | Print | Product List | Glossary On
Versions: 1 2 3 4 5 6 7 8 9 10 11 12 13 14 15 16 17 18 19 20 21 22 23 24 25 26 27 28 29 30 31 32 33 34 35 36 37 38 39 40 41 42 43 44 45 46 47 48 49 50
000
ASUS45 KABQ 061301
RWRNM
NEW MEXICO REGIONAL WEATHER ROUNDUP
NATIONAL WEATHER SERVICE ALBUQUERQUE NM
700 AM MDT FRI MAY 06 2016

NOTE: "FAIR" MEANS FEW OR NO CLOUDS BELOW 12,000 FEET AGL WITH NO
       SIGNIFICANT WEATHER OR OBSTRUCTIONS TO VISION.

      THIS PRODUCT IS RELEASED AS TWO VERSIONS.  ONE VERSION NEAR
      THE TOP OF THE HOUR CONTAINING PRELIMINARY DATA FROM ALBUQUERQUE
      AND OTHER STATIONS.  A FINAL VERSION WITH ADDITIONAL DATA IS
      ISSUED ABOUT 10 MINUTES AFTER THE HOUR.

NMZ501-503-504-510>518-061400-
NORTHWEST PLATEAU/NORTHCENTRAL MOUNTAINS

CITY           SKY/WX    TMP DP  RH WIND       PRES   REMARKS
FARMINGTON     FAIR      61  28  28 SE13      29.93R
SANTA FE       FAIR      60  26  27 SE21G26   30.06R
TAOS           PTSUNNY   46  28  49 NE9       30.14F

$$
NMZ402-403-502-505>509-061400-
WESTCENTRAL MOUNTAINS/SOUTHWEST MOUNTAINS

CITY           SKY/WX    TMP DP  RH WIND       PRES   REMARKS
GALLUP         FAIR      47  29  49 NE3       30.02R
GRANTS         FAIR      56  28  34 S10G17    30.02R
SILVER CITY      N/A     48  19  32 N9        30.03R

$$
NMZ407-409-411-412-061400-
SOUTHERN DESERTS

CITY           SKY/WX    TMP DP  RH WIND       PRES   REMARKS
LORDSBURG      FAIR      61  30  31 S7        29.95R
DEMING         FAIR      49  25  39 CALM      29.97R
HOLLOMAN AFB   FAIR      66  24  20 S13       29.94R
ALAMOGORDO     FAIR      73  28  19 S18G26    29.95S
T OR C         FAIR      58  33  39 SW8       29.95R

$$
NMZ519>523-061400-
CENTRAL VALLEYS/CENTRAL HIGHLANDS

CITY           SKY/WX    TMP DP  RH WIND       PRES   REMARKS
ALBUQUERQUE    FAIR      63  27  25 SW7       30.00R
DOUBLE EAGLE   PTCLDY    52  27  37 W3        30.03R
CLINES CORNERS FAIR      50  24  36 SE13      30.12R
BELEN          FAIR      62  24  23 SE8       29.99R
SOCORRO        NOT AVBL

$$
NMZ524>526-539-540-061400-
SOUTHCENTRAL MOUNTAINS

CITY           SKY/WX    TMP DP  RH WIND       PRES   REMARKS
RUIDOSO        NOT AVBL

$$
NMZ527>531-061400-
NORTHEAST HIGHLANDS/NORTHEAST PLAINS

CITY           SKY/WX    TMP DP  RH WIND       PRES   REMARKS
LAS VEGAS      CLOUDY    51  28  41 CALM      30.18R
RATON          FAIR      48  31  51 NE5       30.15R
CLAYTON        FAIR      56  31  38 W13       30.09R

$$
NMZ532>537-061400-
EASTCENTRAL PLAINS

CITY           SKY/WX    TMP DP  RH WIND       PRES   REMARKS
TUCUMCARI      FAIR      58  35  42 E3        30.05R
CANNON AFB     NOT AVBL
CLOVIS AIRPORT FAIR      54  36  50 S3        30.10R

$$
NMZ028-029-538-061400-
SOUTHEAST PLAINS

CITY           SKY/WX    TMP DP  RH WIND       PRES   REMARKS
ROSWELL        FAIR      55  30  38 CALM      30.02R
ARTESIA        FAIR      55  28  35 E7        30.01S
CARLSBAD       FAIR      64  33  31 S9        30.00R
HOBBS          MOSUNNY   54  36  50 CALM      30.07R


$$




USA.gov is the U.S. government's official web portal to all federal, state and local government web resources and services.